Weather History for KACV - July, 2012

Change the Weather History Date:

Friday, July 20, 2012

  Actual Average Record
Temperature  
Mean Temperature 58 °F -  
Max Temperature 64 °F 61 °F 69 °F (1996)
Min Temperature 51 °F 50 °F 46 °F (1996)
Degree Days  
Heating Degree Days 8    
Growing Degree Days 8 (Base 50)    
Moisture  
Dew Point 55 °F    
Average Humidity 90    
Maximum Humidity 100    
Minimum Humidity 75    
Precipitation  
Precipitation 0.00 in - - ()
Sea Level Pressure  
Sea Level Pressure 30.15 in    
Wind  
Wind Speed 3 mph (NNW)    
Max Wind Speed 17 mph    
Max Gust Speed 30 mph    
Visibility 9 miles    
Events      
Averages and records for this station are not official NWS values.
T = Trace of Precipitation, MM = Missing Value Source: NWS Daily Summary

Daily Weather History Graph

Daily Weather History Graph

Search for Another Location

Airport or City:

Trip Planner

Search our weather history database for the weather conditions in past years. The results will help you decide how hot, cold, wet, or windy it might be!

Date:

Astronomy

Jul. 20, 2012 Rise Set
Actual Time 6:01 AM PDT 8:43 PM PDT
Civil Twilight 5:29 AM PDT 9:15 PM PDT
Nautical Twilight 4:49 AM PDT 9:55 PM PDT
Astronomical Twilight 4:04 AM PDT 10:40 PM PDT
Moon 7:46 AM PDT (7/20) 9:24 PM PDT (7/20)
Length of Visible Light 15h 45m
Length of Day
14h 41m
Waxing Crescent, 3% of the Moon is Illuminated
Jul 20
Waxing Crescent
Jul 26
First Quarter
Aug 1
Full
Aug 9
Last Quarter
Aug 17
New

Hourly Weather History & Observations

Time (PDT) Temp. Dew Point Humidity Pressure Visibility Wind Dir Wind Speed Gust Speed Precip Events Conditions
12:05 AM 57.2 °F 55.4 °F 94% 30.10 in 7.0 mi Calm Calm - N/A   Overcast
12:19 AM 57.2 °F 57.2 °F 100% 30.11 in 7.0 mi Calm Calm - N/A   Overcast
12:53 AM 57.0 °F 55.9 °F 96% 30.12 in 9.0 mi Calm Calm - N/A   Overcast
1:12 AM 57.2 °F 55.4 °F 94% 30.10 in 9.0 mi Calm Calm - N/A   Overcast
1:53 AM 57.0 °F 55.9 °F 96% 30.11 in 4.0 mi SW 3.5 mph - N/A   Overcast
1:57 AM 55.4 °F 55.4 °F 100% 30.09 in 2.5 mi Calm Calm - N/A   Overcast
2:10 AM 55.4 °F 55.4 °F 100% 30.09 in 6.0 mi West 4.6 mph - N/A   Overcast
2:32 AM 55.4 °F 55.4 °F 100% 30.10 in 8.0 mi Calm Calm - N/A   Overcast
2:45 AM 55.4 °F 55.4 °F 100% 30.10 in 10.0 mi Calm Calm - N/A   Overcast
2:53 AM 55.9 °F 55.9 °F 100% 30.12 in 10.0 mi Calm Calm - N/A   Overcast
3:03 AM 55.4 °F 55.4 °F 100% 30.10 in 8.0 mi Calm Calm - N/A   Overcast
3:53 AM 57.0 °F 55.9 °F 96% 30.13 in 9.0 mi Calm Calm - N/A   Overcast
4:53 AM 57.0 °F 55.9 °F 96% 30.13 in 10.0 mi Calm Calm - N/A   Overcast
5:53 AM 55.9 °F 55.9 °F 100% 30.14 in 5.0 mi WNW 4.6 mph - N/A   Overcast
6:53 AM 57.0 °F 55.9 °F 96% 30.16 in 10.0 mi Calm Calm - N/A   Overcast
7:53 AM 57.0 °F 55.9 °F 96% 30.17 in 10.0 mi Calm Calm - N/A   Overcast
8:53 AM 57.9 °F 55.9 °F 93% 30.19 in 10.0 mi NNW 3.5 mph - N/A   Overcast
9:32 AM 59.0 °F 55.4 °F 88% 30.18 in 10.0 mi North 5.8 mph - N/A   Overcast
9:53 AM 60.1 °F 55.0 °F 83% 30.19 in 10.0 mi North 4.6 mph - N/A   Overcast
10:53 AM 60.8 °F 55.4 °F 82% 30.18 in 10.0 mi NW 5.8 mph - N/A   Overcast
11:53 AM 61.0 °F 54.0 °F 78% 30.20 in 10.0 mi NNW 10.4 mph - N/A   Overcast
12:53 PM 62.1 °F 54.0 °F 75% 30.20 in 10.0 mi NNW 12.7 mph - N/A   Overcast
1:53 PM 63.0 °F 55.0 °F 75% 30.20 in 10.0 mi NNW 13.8 mph - N/A   Overcast
2:35 PM 62.6 °F 57.2 °F 82% 30.18 in 10.0 mi NW 12.7 mph - N/A   Scattered Clouds
2:53 PM 63.0 °F 57.0 °F 81% 30.20 in 10.0 mi NNW 15.0 mph - N/A   Clear
3:53 PM 63.0 °F 55.9 °F 78% 30.19 in 10.0 mi NNW 16.1 mph - N/A   Clear
4:53 PM 63.0 °F 55.0 °F 75% 30.18 in 10.0 mi NNW 17.3 mph 23.0 mph N/A   Clear
5:53 PM 61.0 °F 55.0 °F 81% 30.18 in 10.0 mi NNW 13.8 mph 29.9 mph N/A   Clear
6:53 PM 61.0 °F 53.1 °F 75% 30.17 in 10.0 mi NNW 16.1 mph - N/A   Clear
7:53 PM 60.1 °F 53.1 °F 78% 30.17 in 10.0 mi NNW 11.5 mph 25.3 mph N/A   Clear
8:53 PM 57.0 °F 53.1 °F 87% 30.17 in 10.0 mi North 5.8 mph - N/A   Clear
9:53 PM 54.0 °F 52.0 °F 93% 30.18 in 10.0 mi NNW 4.6 mph - N/A   Clear
10:53 PM 52.0 °F 52.0 °F 100% 30.18 in 10.0 mi Calm Calm - N/A   Clear
11:53 PM 51.1 °F 50.0 °F 96% 30.18 in 10.0 mi Calm Calm - N/A   Clear